"TOA5","AWS1","CR1000","7964","CR1000.Std.14","CPU:AWS1_114.CR1","64363","TBL110"
"TIMESTAMP","RECORD","Wind_spd_WVc(1)","Wind_spd_WVc(2)","Air_Temp_Avg","Humidity_Avg","SW_upper_Wm2_Avg","Rain_Tot","Press_Avg","Issui_Tot","Depth_cm","SR50A_Raw","Quality","Ground_Temp_Avg(1)","Ground_Temp_Avg(2)","SW_lower_Wm2_Avg","Albedo_Avg","SWC_per(1)","SWC_per(2)","Period(1)","Period(2)"
"TS","RN","","","","","","","","","","","","","","","","","","",""
"","","WVc","WVc","Avg","Avg","Avg","Tot","Avg","Tot","Smp","Smp","Smp","Avg","Avg","Avg","Avg","Smp","Smp","Smp","Smp"
"2018-07-16 00:00:00",349549,0,0,20.41,100,0,0,869.9383,0,22.4,2.851,280,22.5,20.94,0.1288502,0,46.88,54.29,32.51,34.34
"2018-07-16 00:10:00",349550,0,0,20.38,100,0,0,869.9362,0,22.36,2.852,290,22.5,20.94,0.227381,0,46.88,54.29,32.51,34.34
"2018-07-16 00:20:00",349551,0,0,20.26,100,0,0,869.9319,0,22.76,2.849,362,22.41,20.94,0.227387,0,46.93,54.29,32.52,34.34
"2018-07-16 00:30:00",349552,0.228,171,20.09,100,0,0,869.7466,0,-19.6,3.259,194,22.39,20.94,0.2273903,0,46.88,54.29,32.51,34.34
"2018-07-16 00:40:00",349553,0.316,171.7,19.91,100,0,0,869.6834,0,-12.67,3.192,189,22.4,20.99,0.2273913,0,46.88,54.29,32.51,34.34
"2018-07-16 00:50:00",349554,0.229,171.7,20.05,100,0,0,869.6813,0,13.17,2.942,479,22.37,21,0.2425544,0,46.88,54.29,32.51,34.34
"2018-07-16 01:00:00",349555,0.215,171.7,19.98,100,0,0,869.5465,0,-21.57,3.278,196,22.3,21.01,0.227389,0,46.88,54.29,32.51,34.34
"2018-07-16 01:10:00",349556,0.214,172.4,19.86,100,0,0,869.4286,0,-19.01,3.254,194,22.34,21.02,0.2273939,0,46.88,54.29,32.51,34.34
"2018-07-16 01:20:00",349557,0.381,172.5,19.77,100,0,0,869.4286,0,-18.81,3.253,194,22.34,21.03,0.2273949,0,46.88,54.29,32.51,34.34
"2018-07-16 01:30:00",349558,0.335,173.1,19.63,100,0,0,869.4265,0,-19.4,3.259,196,22.25,21.02,0.2273903,0,46.88,54.29,32.51,34.34
"2018-07-16 01:40:00",349559,0.183,173.6,19.64,100,0,0,869.4286,0,-19.48,3.26,197,22.26,21.03,0.2273927,0,46.88,54.29,32.51,34.34
"2018-07-16 01:50:00",349560,0.202,173.1,19.56,100,0,0,869.3085,0,2.335,3.049,235,22.26,21.02,0.2273943,0,46.88,54.24,32.51,34.33
"2018-07-16 02:00:00",349561,0.445,173.3,19.43,100,0,0,869.1758,0,3.805,3.037,214,22.2,21.03,0.227399,0,46.88,54.24,32.51,34.33
"2018-07-16 02:10:00",349562,0.341,174.3,19.18,100,0,0,869.1758,0,2.358,3.051,223,22.19,21.05,0.2274039,0,46.88,54.24,32.51,34.33
"2018-07-16 02:20:00",349563,0.242,174.4,19.15,100,0,0,869.1758,0,-15.92,3.228,191,22.18,21.03,0.2273969,0,46.88,54.24,32.51,34.33
"2018-07-16 02:30:00",349564,0.009,174.3,19.25,100,0,0,869.1758,0,2.83,3.046,228,22.13,21.02,0.4926945,0,46.88,54.24,32.51,34.33
"2018-07-16 02:40:00",349565,0.278,174,19.12,100,0,0,869.1695,0,4.754,3.029,308,22.06,21.02,0.238766,0,46.88,54.24,32.51,34.33
"2018-07-16 02:50:00",349566,0.261,174,18.95,100,0,0,869.159,0,1.467,3.061,204,22.1,20.99,0.2273969,0,46.88,54.24,32.51,34.33
"2018-07-16 03:00:00",349567,0.343,174.1,18.81,100,0,0,869.1737,0,7.888,3,376,22.01,21,0.2273977,0,46.82,54.18,32.5,34.32
"2018-07-16 03:10:00",349568,0.348,174.2,18.75,100,0,0,869.1758,0,-30.39,3.37,288,22.01,21,0.2766796,0,46.88,54.24,32.51,34.33
"2018-07-16 03:20:00",349569,0.249,174.2,18.78,100,0,0,869.1758,0,-33.86,3.405,294,22.04,21.01,0.4472582,0,46.88,54.24,32.51,34.33
"2018-07-16 03:30:00",349570,0.243,180.6,18.66,100,0,0,869.1779,0,22.56,2.858,348,22.01,20.99,0.4624053,0,46.88,54.24,32.51,34.33
"2018-07-16 03:40:00",349571,0.187,106.8,18.68,100,0,0,869.2811,0,1.342,3.063,358,21.95,20.97,0.5040964,0,46.88,54.18,32.51,34.32
"2018-07-16 03:50:00",349572,0.795,50.59,19.8,89.8,0,0,869.4286,0,-30.16,3.36,341,21.95,20.97,2.07707,0,46.82,54.18,32.5,34.32
"2018-07-16 04:00:00",349573,0.961,50.61,20.21,85.7,0,0,869.4286,0,20.96,2.866,323,21.97,20.98,1.682874,0,46.82,54.18,32.5,34.32
"2018-07-16 04:10:00",349574,0.986,39.61,20.43,81.3,0,0,869.4286,0,16.29,2.91,268,21.86,20.98,1.68667,0,46.82,54.18,32.5,34.32
"2018-07-16 04:20:00",349575,0.785,38.53,20.38,80.3,0,0,869.4286,0,18.1,2.893,294,21.84,20.95,1.553944,0,46.82,54.18,32.5,34.32
"2018-07-16 04:30:00",349576,0.534,30.96,20.81,76.88,0,0,869.4349,0,-18.78,3.245,192,21.8,20.92,2.057976,0,46.88,54.18,32.51,34.32
"2018-07-16 04:40:00",349577,0.292,16.34,21.22,73.47,0,0,869.4454,0,20.3,2.865,389,21.73,20.91,2.383912,0,46.82,54.18,32.5,34.32
"2018-07-16 04:50:00",349578,0.276,30.27,21.69,72.25,0,0,869.6034,0,-21.5,3.268,196,21.75,20.89,2.471121,0,46.88,54.18,32.51,34.32
"2018-07-16 05:00:00",349579,0.091,66.25,21.26,75.29,1.344269,0,869.6581,0,-19.48,3.252,189,21.72,20.87,1.398484,2.003,46.82,54.18,32.5,34.32
"2018-07-16 05:10:00",349580,0.136,97.6,21.45,75.27,8.686377,0,869.6813,0,23.3,2.84,267,21.62,20.86,2.645241,0.316,46.88,54.18,32.51,34.32
"2018-07-16 05:20:00",349581,0.164,137.1,20.8,79.4,14.20846,0,869.7066,0,-12.22,3.184,179,21.63,20.85,2.349596,0.165,46.88,54.18,32.51,34.32
"2018-07-16 05:30:00",349582,0.227,154,20.58,80.9,21.68778,0,869.8414,0,-19.72,3.258,194,21.63,20.85,3.399293,0.156,46.88,54.12,32.51,34.3
"2018-07-16 05:40:00",349583,0.229,161.5,20.32,82.6,29.44301,0,869.7277,0,-11.64,3.18,170,21.63,20.86,4.142146,0.141,46.88,54.12,32.51,34.3
"2018-07-16 05:50:00",349584,0.134,66.55,20.67,78.47,36.88051,0,869.9088,0,-19.93,3.258,178,21.63,20.88,5.449755,0.147,46.88,54.12,32.51,34.3
"2018-07-16 06:00:00",349585,0.295,120.9,21.27,72.27,76.09786,0,869.934,0,-22.36,3.276,189,21.56,20.87,11.68371,0.155,46.88,54.12,32.51,34.3
"2018-07-16 06:10:00",349586,0.23,152.1,21.1,77.1,92.64736,0,869.9467,0,21.96,2.853,357,21.55,20.85,14.04824,0.162,46.88,54.18,32.51,34.32
"2018-07-16 06:20:00",349587,0.304,144.7,20.74,80.9,71.43822,0,870.1278,0,6.245,3.008,252,21.52,20.85,12.21772,0.168,46.88,54.12,32.51,34.3
"2018-07-16 06:30:00",349588,0.292,170.6,20.54,80.7,94.7599,0,870.1594,0,2.221,3.043,208,21.42,20.85,19.16007,0.201,46.88,54.12,32.51,34.3
"2018-07-16 06:40:00",349589,0.396,179,21.25,75.4,98.51681,0,870.1868,0,5.381,3.009,272,21.42,20.85,22.50616,0.228,46.93,54.12,32.52,34.3
"2018-07-16 06:50:00",349590,0.486,180.5,21.3,76.43,88.16422,0,870.1868,0,-25.9,3.312,209,21.45,20.85,14.94218,0.17,46.88,54.12,32.51,34.3
"2018-07-16 07:00:00",349591,0.388,180.2,21.38,76.48,98.46941,0,870.1868,0,19.92,2.868,361,21.45,20.87,26.97777,0.278,46.88,54.18,32.51,34.32
"2018-07-16 07:10:00",349592,0.509,174.6,21.84,77.44,91.30843,0,870.1847,0,20.01,2.868,337,21.44,20.85,28.44053,0.337,46.88,54.12,32.51,34.3
"2018-07-16 07:20:00",349593,0.37,179.6,21.95,75.1,73.06796,0,870.1847,0,18.24,2.881,294,21.37,20.82,28.34958,0.389,46.88,54.12,32.51,34.3
"2018-07-16 07:30:00",349594,0.428,192.2,22.59,69.74,81.76176,0,870.1868,0,20.17,2.861,321,21.36,20.78,28.99759,0.356,46.88,54.12,32.51,34.3
"2018-07-16 07:40:00",349595,0.348,167.3,22.78,70.39,79.9892,0,870.1847,0,21.58,2.847,346,21.32,20.73,31.47217,0.394,46.82,54.12,32.5,34.3
"2018-07-16 07:50:00",349596,0.328,242.8,23.41,66.9,96.73222,0,870.1805,0,20.01,2.86,334,21.32,20.71,36.2091,0.396,46.93,54.12,32.52,34.3
"2018-07-16 08:00:00",349597,0.448,310.4,23.73,64.43,546.5536,0,870.1173,0,-21.41,3.253,194,21.32,20.71,47.21393,0.089,46.88,54.07,32.51,34.29
"2018-07-16 08:10:00",349598,0.315,247.7,24.22,63.44,612.4094,0,870.033,0,20.17,2.854,262,21.32,20.72,70.37942,0.115,46.88,54.12,32.51,34.3
"2018-07-16 08:20:00",349599,0.385,254.1,24.52,63.67,656.24,0,869.9424,0,20.73,2.847,251,21.29,20.69,88.25471,0.134,46.82,54.07,32.5,34.29
"2018-07-16 08:30:00",349600,0.541,355.7,24.57,63.71,691.9584,0,869.934,0,21.44,2.841,249,21.28,20.72,100.0894,0.145,46.88,54.07,32.51,34.29
"2018-07-16 08:40:00",349601,0.598,137.7,24.43,66.24,721.0819,0,869.9003,0,19.67,2.858,282,21.27,20.67,106.9788,0.148,46.88,54.07,32.51,34.29
"2018-07-16 08:50:00",349602,0.352,79.97,24.79,64.29,755.6802,0,869.7003,0,21.62,2.837,245,21.26,20.69,112.288,0.149,46.82,54.07,32.5,34.29
"2018-07-16 09:00:00",349603,0.489,93.1,25.05,65.33,790.5576,0,869.6813,0,21.64,2.837,245,21.22,20.67,116.3807,0.147,46.82,54.07,32.5,34.29
"2018-07-16 09:10:00",349604,0.507,352.5,24.92,65.73,752.5517,0,869.5086,0,21.73,2.837,241,21.19,20.63,108.7334,0.144,46.82,54.07,32.5,34.29
"2018-07-16 09:20:00",349605,0.481,32.63,24.89,66.78,829.8958,0,869.4286,0,21.51,2.837,232,21.23,20.63,121.6823,0.147,46.88,54.07,32.51,34.29
"2018-07-16 09:30:00",349606,0.553,51.06,25.32,67.52,869.3244,0,869.4286,0,21.78,2.832,246,21.21,20.63,129.5759,0.149,46.88,54.07,32.51,34.29
"2018-07-16 09:40:00",349607,0.53,11.28,25.62,66.18,864.4587,0,869.4286,0,21.07,2.839,260,21.15,20.63,127.4727,0.147,46.82,54.07,32.5,34.29
"2018-07-16 09:50:00",349608,0.389,277.9,25.6,65.76,889.0977,0,869.4286,0,21.17,2.838,249,21.16,20.63,131.266,0.148,46.88,54.07,32.51,34.29
"2018-07-16 10:00:00",349609,0.386,320.4,25.93,63.62,946.8415,0,869.4286,0,21.73,2.831,233,21.18,20.63,139.6561,0.147,46.82,54.01,32.5,34.27
"2018-07-16 10:10:00",349610,0.264,268.9,26.13,63.42,966.5715,0,869.4286,0,-21.51,3.244,221,21.26,20.61,140.486,0.145,46.82,54.01,32.5,34.27
"2018-07-16 10:20:00",349611,0.458,307.6,25.75,62.77,868.8371,0,869.4286,0,8.96,2.956,230,21.29,20.58,124.9185,0.137,46.77,54.01,32.48,34.27
"2018-07-16 10:30:00",349612,0.599,20.59,25.7,63,933.9855,0,869.4286,0,21.69,2.831,310,21.31,20.47,141.7555,0.151,46.77,54.01,32.48,34.27
"2018-07-16 10:40:00",349613,0.414,314.8,25.86,63.27,744.1291,0,869.4286,0,19.91,2.848,265,21.3,20.52,113.3642,0.136,46.77,54.01,32.48,34.27
"2018-07-16 10:50:00",349614,0.49,283.1,25.79,62.36,690.6261,0,869.4265,0,20.47,2.847,296,21.24,20.53,102.4352,0.133,46.72,53.95,32.47,34.26
"2018-07-16 11:00:00",349615,0.5,248.5,25.23,64.37,674.449,0,869.4286,0,-20.33,3.235,196,21.34,20.53,102.9089,0.137,46.77,53.95,32.48,34.26
"2018-07-16 11:10:00",349616,0.404,279.8,25.37,62.76,562.0192,0,869.3275,0,-24.41,3.275,195,21.34,20.49,84.15441,0.137,46.72,53.95,32.47,34.26
"2018-07-16 11:20:00",349617,0.512,346.4,25.16,63.58,444.6019,0,869.1758,0,-16.21,3.198,204,21.48,20.46,64.4412,0.128,46.72,53.95,32.47,34.26
"2018-07-16 11:30:00",349618,0.471,278.4,25.32,63.97,624.5579,0,869.1273,0,22.28,2.829,259,21.46,20.46,96.05358,0.139,46.66,53.95,32.46,34.26
"2018-07-16 11:40:00",349619,0.317,327.9,25.6,61.99,656.9828,0,869.1653,0,22.24,2.827,239,21.53,20.46,101.1846,0.135,46.66,53.9,32.46,34.25
"2018-07-16 11:50:00",349620,0.328,203.1,26.45,59.36,827.6555,0,869.0473,0,-21.64,3.245,192,21.58,20.46,129.9018,0.143,46.66,53.9,32.46,34.25
"2018-07-16 12:00:00",349621,0.415,314.1,26.52,58.44,945.7567,0,869.1105,0,-18.53,3.211,198,21.61,20.46,151.1498,0.154,46.61,53.9,32.44,34.25
"2018-07-16 12:10:00",349622,0.77,8.89,26.73,54.79,927.4023,0,869.0873,0,-21.48,3.242,195,21.69,20.46,144.9804,0.148,46.61,53.9,32.44,34.25
"2018-07-16 12:20:00",349623,0.628,332.9,26.69,54.19,1053.777,0,868.9252,0,-21.35,3.237,218,21.75,20.46,169.8512,0.161,46.56,53.9,32.43,34.25
"2018-07-16 12:30:00",349624,0.598,271,26.86,52.63,1020.829,0,868.923,0,14.15,2.899,295,21.77,20.46,164.6178,0.161,46.51,53.9,32.42,34.25
"2018-07-16 12:40:00",349625,0.559,310,27.15,52.02,1058.414,0,868.923,0,20.12,2.84,264,21.83,20.47,169.6086,0.16,46.51,53.84,32.42,34.23
"2018-07-16 12:50:00",349626,0.496,359.7,27.51,49.86,1003.736,0,868.8768,0,17.59,2.862,288,21.93,20.47,158.6341,0.158,46.45,53.84,32.4,34.23
"2018-07-16 13:00:00",349627,0.379,271.7,27.62,48.96,1017.512,0,868.843,0,20.22,2.839,335,21.96,20.46,161.7036,0.159,46.45,53.84,32.4,34.23
"2018-07-16 13:10:00",349628,0.493,348.7,27.56,46.91,1013.161,0,868.6787,0,-21.86,3.239,204,22.02,20.44,160.5668,0.158,46.4,53.78,32.39,34.22
"2018-07-16 13:20:00",349629,0.605,343.5,27.64,47.97,1029.197,0,868.6766,0,-17.01,3.19,200,22.1,20.43,163.4885,0.159,46.4,53.78,32.39,34.22
"2018-07-16 13:30:00",349630,0.562,266.5,27.72,46.19,926.7773,0,868.6914,0,16.55,2.873,246,22.16,20.43,147.671,0.158,46.35,53.78,32.38,34.22
"2018-07-16 13:40:00",349631,0.427,230.2,27.46,48.05,956.3802,0,868.6829,0,14.87,2.89,242,22.23,20.43,154.2117,0.161,46.35,53.78,32.38,34.22
"2018-07-16 13:50:00",349632,0.568,271.7,27.25,47.31,943.6226,0,868.6808,0,17.35,2.867,254,22.31,20.45,153.2454,0.162,46.29,53.78,32.36,34.22
"2018-07-16 14:00:00",349633,0.393,268.6,27.45,46.85,904.3472,0,868.6703,0,-19.23,3.213,230,22.39,20.46,144.4006,0.16,46.24,53.73,32.35,34.21
"2018-07-16 14:10:00",349634,0.374,300.7,27.77,46.23,915.0416,0,868.6577,0,15.33,2.884,262,22.45,20.45,143.6616,0.157,46.24,53.73,32.35,34.21
"2018-07-16 14:20:00",349635,0.667,22.98,27.91,44.67,921.051,0,868.4281,0,19.01,2.846,302,22.52,20.45,141.6115,0.154,46.19,53.73,32.34,34.21
"2018-07-16 14:30:00",349636,0.401,328.3,28.07,47.56,813.707,0,868.4176,0,-17.53,3.198,181,22.59,20.45,120.6667,0.148,46.19,53.67,32.34,34.19
"2018-07-16 14:40:00",349637,0.277,297.4,27.59,48.34,659.7537,0,868.4639,0,23.2,2.809,299,22.68,20.45,89.89937,0.136,46.14,53.67,32.32,34.19
"2018-07-16 14:50:00",349638,0.296,305.7,27.31,50.75,661.1804,0,868.4512,0,-18.91,3.213,197,22.76,20.45,80.79309,0.122,46.08,53.67,32.31,34.19
"2018-07-16 15:00:00",349639,0.448,316,27.05,47.87,691.6519,0,868.4449,0,-17.8,3.202,195,22.76,20.44,71.10323,0.103,46.08,53.67,32.31,34.19
"2018-07-16 15:10:00",349640,0.278,284.3,27.4,46.57,714.8445,0,868.4176,0,22.8,2.814,316,22.84,20.48,53.72058,0.075,46.03,53.67,32.29,34.19
"2018-07-16 15:20:00",349641,0.47,321.5,27.34,45.99,436.9182,0,868.4176,0,21.4,2.829,293,22.91,20.52,36.67142,0.086,46.03,53.67,32.29,34.19
"2018-07-16 15:30:00",349642,0.478,149.7,26.9,51.75,197.607,0,868.4176,0,21.53,2.83,249,22.93,20.53,25.25731,0.13,46.03,53.67,32.29,34.19
"2018-07-16 15:40:00",349643,0.535,63.37,26.61,53.84,112.8818,0,868.4176,0,22.05,2.824,282,23.04,20.54,19.96332,0.179,45.98,53.67,32.28,34.19
"2018-07-16 15:50:00",349644,0.673,51.06,26.64,54.34,96.068,0,868.4176,0,22.31,2.822,250,23.08,20.54,18.76583,0.195,45.92,53.61,32.27,34.18
"2018-07-16 16:00:00",349645,0.411,58.52,26.62,54.12,103.9757,0,868.4176,0,23.15,2.816,281,23.16,20.55,17.84118,0.172,45.92,53.61,32.27,34.18
"2018-07-16 16:10:00",349646,0.232,205.5,26.22,55.73,101.9361,0,868.4176,0,21.65,2.832,246,23.13,20.6,16.58307,0.163,45.87,53.61,32.25,34.18
"2018-07-16 16:20:00",349647,0.232,297.2,26.12,56.38,107.5932,0,868.5334,0,22.02,2.828,267,23.21,20.56,17.72017,0.165,45.92,53.56,32.27,34.17
"2018-07-16 16:30:00",349648,0.212,197.2,25.88,56.26,112.0288,0,868.4554,0,22.19,2.828,254,23.24,20.58,14.62054,0.135,45.92,53.56,32.27,34.17
"2018-07-16 16:40:00",349649,0.246,28.03,25.71,56.3,106.9803,0,868.4976,0,22.27,2.826,275,23.3,20.65,15.39775,0.144,45.87,53.56,32.25,34.17
"2018-07-16 16:50:00",349650,0.275,50.28,25.6,57.55,101.8063,0,868.6703,0,-20.15,3.233,316,23.37,20.69,14.34454,0.141,45.82,53.56,32.24,34.17
"2018-07-16 17:00:00",349651,0.761,334.4,25.9,51.64,86.31471,0,868.6703,0,22,2.829,257,23.4,20.7,12.17281,0.141,45.82,53.56,32.24,34.17
"2018-07-16 17:10:00",349652,0.433,322.8,25.39,55.95,64.37776,0,868.6682,0,21.19,2.84,272,23.43,20.73,7.780368,0.121,45.82,53.5,32.24,34.15
"2018-07-16 17:20:00",349653,0.363,10.14,25.02,58.28,48.45881,0,868.605,0,21.35,2.841,312,23.43,20.74,5.154028,0.105,45.82,53.5,32.24,34.15
"2018-07-16 17:30:00",349654,0.283,24.43,24.53,61.74,40.55379,0,868.6135,0,-18.49,3.223,194,23.42,20.78,4.001867,0.098,45.66,53.5,32.2,34.15
"2018-07-16 17:40:00",349655,0.506,355.2,24.63,61.54,41.39526,0,868.5924,0,21.35,2.841,293,23.42,20.81,4.710572,0.114,45.77,53.5,32.23,34.15
"2018-07-16 17:50:00",349656,0.521,18.19,24.05,65.2,34.6943,0,868.6661,0,-20.04,3.239,183,23.43,20.79,3.664666,0.105,45.77,53.45,32.23,34.14
"2018-07-16 18:00:00",349657,0.094,23.81,24.28,62.99,37.37927,0,868.6703,0,-20.33,3.243,187,23.43,20.82,4.706896,0.126,45.77,53.45,32.23,34.14
"2018-07-16 18:10:00",349658,0.146,36.4,24.15,63.4,32.90694,0,868.6198,0,21.88,2.838,299,23.44,20.86,4.03997,0.123,45.71,53.5,32.21,34.15
"2018-07-16 18:20:00",349659,0.272,172,24.08,61.86,27.37191,0,868.6703,0,21.8,2.84,275,23.4,20.84,3.547192,0.13,45.66,53.45,32.2,34.14
"2018-07-16 18:30:00",349660,0.352,24.79,24.05,61.66,27.34841,0,868.6829,0,22.31,2.834,309,23.41,20.86,4.369583,0.16,45.71,53.45,32.21,34.14
"2018-07-16 18:40:00",349661,0.306,316.3,24.28,60.06,28.39123,0,868.8894,0,-22.21,3.26,173,23.39,20.91,4.93826,0.174,45.71,53.5,32.21,34.15
"2018-07-16 18:50:00",349662,0.186,311.8,24.19,60.44,14.56349,0,868.921,0,-20.67,3.249,184,23.34,20.92,2.247475,0.144,45.71,53.45,32.21,34.14
"2018-07-16 19:00:00",349663,0.256,35.1,23.28,64.4,3.891431,0,868.9462,0,-21.66,3.259,226,23.28,20.91,0.1326495,0.046,45.66,53.45,32.2,34.14
"2018-07-16 19:10:00",349664,0.3,2.258,23.76,61.8,0.3970004,0,869.1042,0,21.69,2.841,294,23.33,20.88,0.4093091,0.349,45.66,53.39,32.2,34.13
"2018-07-16 19:20:00",349665,0.228,14.66,23.6,63.4,0,0,869.1758,0,21.29,2.848,275,23.3,20.87,0.1515929,0,45.61,53.45,32.19,34.14
"2018-07-16 19:30:00",349666,0.017,47.67,22.98,67.6,0,0,869.1948,0,22.02,2.847,265,23.28,20.96,0,0,45.66,53.45,32.2,34.14
"2018-07-16 19:40:00",349667,0.046,72.68,21.73,74.33,0,0,869.3906,0,21.69,2.854,252,23.31,21.01,0,0,45.66,53.39,32.2,34.13
"2018-07-16 19:50:00",349668,0.259,174.4,20.95,79.63,0,0,869.4286,0,21.82,2.855,251,23.26,21.02,0,0,45.66,53.45,32.2,34.14
"2018-07-16 20:00:00",349669,0.09,173.6,20.76,81.1,0,0,869.4286,0,22.99,2.844,270,23.2,21.01,0,0,45.61,53.45,32.19,34.14
"2018-07-16 20:10:00",349670,0.016,173.8,20.87,80.4,0,0,869.4286,0,23.27,2.84,269,23.19,21.02,0.08338238,0,45.61,53.39,32.19,34.13
"2018-07-16 20:20:00",349671,0.362,176.9,20.58,82.4,0,0,869.4327,0,23.77,2.839,262,23.21,21.02,0.03032097,0,45.61,53.39,32.19,34.13
"2018-07-16 20:30:00",349672,0.181,190.8,20.35,82.5,0,0,869.6329,0,22.97,2.845,244,23.09,21,0.08716737,0,45.61,53.39,32.19,34.13
"2018-07-16 20:40:00",349673,0.246,186.8,20.22,83.7,0,0,869.7403,0,22.28,2.855,241,23.1,21.05,0.06442884,0,45.61,53.39,32.19,34.13
"2018-07-16 20:50:00",349674,0.478,184.4,19.89,85.4,0,0,869.9193,0,22.07,2.857,241,23.1,21.11,0,0,45.61,53.39,32.19,34.13
"2018-07-16 21:00:00",349675,0.543,189.6,19.71,87.3,0,0,869.9319,0,21.89,2.86,250,23.01,21.14,0.007580437,0,45.56,53.39,32.17,34.13
"2018-07-16 21:10:00",349676,0.4,183.4,19.7,88,0,0,869.934,0,21.55,2.863,293,23.06,21.16,0.2274181,0,45.56,53.39,32.17,34.13
"2018-07-16 21:20:00",349677,0.275,180.9,19.73,88.4,0,0,869.9719,0,22.27,2.856,324,23.06,21.17,0.2387945,0,45.56,53.33,32.17,34.11
"2018-07-16 21:30:00",349678,0.209,176.9,19.7,88.7,0,0,870.1826,0,-19.46,3.259,170,23.01,21.18,0.2274306,0,45.61,53.39,32.19,34.13
"2018-07-16 21:40:00",349679,0.234,178.5,19.7,89,0,0,870.1868,0,22.7,2.853,335,23,21.17,0.2463783,0,45.61,53.33,32.19,34.11
"2018-07-16 21:50:00",349680,0.467,181.9,19.4,91.5,0,0,870.1489,0,-23.27,3.298,191,22.92,21.17,0.2236367,0,45.61,53.33,32.19,34.11
"2018-07-16 22:00:00",349681,0.367,189.9,19.21,92.8,0,0,869.953,0,-19.07,3.258,194,22.91,21.17,0.2274252,0,45.61,53.33,32.19,34.11
"2018-07-16 22:10:00",349682,0.315,185.7,19.35,91.9,0,0,869.934,0,-19.15,3.258,192,22.88,21.19,0.265323,0,45.56,53.33,32.17,34.11
"2018-07-16 22:20:00",349683,0.365,183.3,19.39,90.7,0,0,869.934,0,-16.76,3.234,194,22.82,21.27,0.477589,0,45.56,53.33,32.17,34.11
"2018-07-16 22:30:00",349684,0.196,183.2,19.53,90.2,0,0,869.934,0,8.83,2.987,236,22.8,21.32,0.5420125,0,45.56,53.28,32.17,34.1
"2018-07-16 22:40:00",349685,0.487,187.2,19.38,92.6,0,0,869.934,0,8.17,2.994,236,22.71,21.33,0.2274176,0,45.56,53.33,32.17,34.11
"2018-07-16 22:50:00",349686,0.317,193.6,19.48,92.8,0,0,869.8624,0,-32.94,3.39,197,22.71,21.31,0.447255,0,45.56,53.28,32.17,34.1
"2018-07-16 23:00:00",349687,0.042,189.3,19.65,92.2,0,0,869.793,0,-15.83,3.223,192,22.73,21.31,0.5041245,0,45.56,53.28,32.17,34.1
"2018-07-16 23:10:00",349688,0.305,189,19.54,93,0,0,869.7108,0,-15.55,3.223,192,22.63,21.29,0.3259773,0,45.56,53.28,32.17,34.1
"2018-07-16 23:20:00",349689,0.228,191.2,19.53,95.5,0,0,869.6813,0,-16.25,3.229,194,22.63,21.27,0.4321001,0,45.56,53.33,32.17,34.11
"2018-07-16 23:30:00",349690,0.402,189.3,19.31,97.7,0,0,869.6813,0,9.2,2.985,225,22.64,21.27,0.2236322,0,45.56,53.28,32.17,34.1
"2018-07-16 23:40:00",349691,0.205,189.5,19.29,100,0,0,869.6244,0,-16.42,3.231,194,22.56,21.26,0.2274184,0,45.56,53.33,32.17,34.11
"2018-07-16 23:50:00",349692,0.239,189.2,19.26,100,0,0,869.4496,0,-15.63,3.225,192,22.56,21.26,0.2274175,0,45.5,53.28,32.16,34.1
